Wind_Speed
36 38 40 43 44 45 47 49 48 47 48 50 51 53 55 58 58 58 58 61 62 63 63 63 61 60 58 58 56 54 52 51 48 47 45 42 41 41 39 40 45 38 37
41 42 45 47 49 50 50 48 46 48 49 50 52 54 56 55 55 54 55 56 58 56 56 57 57 57 56 55 55 54 53 53 51 49 48 45 43 43 40 39 43 41 39
45 46 47 47 48 46 47 48 49 51 52 54 56 55 56 55 56 55 55 56 55 57 57 56 55 56 56 57 56 57 57 56 55 53 49 49 48 47 43 40 43 44 43
43 44 47 48 48 52 52 53 53 53 54 56 57 59 59 59 58 55 55 55 55 54 55 56 56 58 59 60 61 62 63 63 61 59 55 53 52 51 49 47 45 47 43
43 45 48 50 51 52 55 56 58 57 58 58 57 56 54 52 48 51 52 52 52 53 55 58 60 62 64 66 67 67 68 67 67 66 62 59 56 56 56 51 49 47 47
51 51 50 50 49 50 49 50 52 53 51 51 51 50 46 45 47 48 50 52 55 58 61 63 64 67 68 68 68 68 69 68 68 71 66 64 59 59 58 54 49 46 44
46 47 45 46 47 47 46 46 46 46 45 45 45 42 43 43 46 48 51 57 59 59 64 64 62 62 64 65 65 66 68 69 70 70 68 68 67 65 62 59 55 51 48
43 44 44 44 44 44 44 45 44 43 42 41 39 39 41 43 47 51 54 55 60 55 55 58 59 62 60 54 51 53 57 62 66 69 66 65 70 71 69 64 60 55 50
40 40 41 41 41 41 42 41 41 39 36 35 36 38 41 46 50 50 55 55 48 51 52 53 48 42 40 45 46 44 40 37 47 59 66 59 63 63 67 68 64 61 55
34 34 35 37 38 38 37 37 34 32 31 33 35 40 46 46 48 54 47 44 46 45 42 42 40 38 37 35 36 34 30 27 22 19 29 46 52 56 56 63 66 62 58
36 36 36 36 36 35 32 30 29 28 30 34 38 42 45 47 48 43 39 40 37 31 33 35 33 31 32 26 25 26 23 16 14 15 20 26 31 36 40 46 52 54 49
38 37 35 35 35 30 27 25 25 27 31 35 38 42 46 46 40 35 35 31 21 23 29 33 29 20 25 22 24 22 18 12 10 8 14 19 24 30 35 37 39 45 48
34 36 36 34 29 23 22 21 25 28 31 34 40 43 43 38 34 31 26 15 12 21 29 20 18 21 19 19 14 16 11 6 4 10 17 21 21 26 32 37 41 43 45
35 31 28 23 21 23 21 21 23 27 29 35 39 41 39 32 27 19 12 8 13 22 13 16 19 16 21 22 21 12 5 1 2 4 11 12 21 20 19 33 37 38 48
20 21 20 19 22 19 15 19 22 24 28 34 37 32 23 18 13 9 5 7 11 11 10 18 17 15 20 23 22 13 11 11 8 11 2 8 11 16 21 27 30 39 43
18 14 15 13 6 9 14 18 19 23 29 30 20 14 14 9 8 7 8 11 12 11 6 13 16 14 17 24 21 14 11 9 5 3 4 3 19 16 28 28 29 33 37
12 13 10 4 8 10 13 15 23 26 25 14 12 10 10 15 10 13 18 16 17 8 9 8 12 10 26 31 22 25 24 16 8 8 9 19 42 21 30 30 29 30 33
9 9 5 8 9 11 13 17 20 19 13 7 10 9 12 11 8 13 14 16 21 11 9 9 13 18 22 30 25 28 24 21 14 13 14 27 40 33 28 34 28 31 33
6 6 8 8 9 11 13 16 17 14 11 6 4 4 8 9 7 12 15 15 16 18 23 25 29 26 21 33 39 27 31 25 27 25 19 25 37 35 30 26 27 25 27
10 8 9 8 10 12 12 14 14 11 9 4 3 3 4 7 5 3 6 6 12 24 23 20 23 26 29 32 30 23 25 27 20 26 29 22 28 39 37 37 38 36 36
7 7 8 10 11 12 13 13 12 10 8 7 3 3 2 3 1 4 4 7 13 19 11 11 18 24 19 19 20 20 28 18 22 24 27 31 29 27 33 34 31 31 28
8 8 10 12 13 13 13 13 12 10 7 7 5 6 5 6 5 6 6 9 8 6 8 11 6 16 15 19 14 17 16 17 18 19 19 17 18 22 22 22 23 23 23
13 12 12 13 13 13 13 13 13 13 6 8 7 9 8 9 11 5 10 9 5 2 11 9 13 9 11 13 13 8 11 15 14 12 15 17 18 19 21 16 13 14 15
14 13 12 13 13 13 14 14 14 15 9 10 12 10 12 12 14 10 12 16 11 8 8 9 9 8 8 8 8 7 7 8 8 8 8 9 12 12 13 13 13 11 9
10 12 12 12 12 14 14 15 15 14 12 6 13 14 17 17 17 18 16 14 14 13 16 12 10 11 11 9 6 2 2 3 4 5 6 5 5 4 5 5 6 7 8
9 9 11 13 13 13 14 15 14 13 13 6 5 10 17 24 26 25 28 23 24 19 16 17 16 15 12 11 8 6 5 6 8 7 7 7 7 8 7 7 8 10 13
Wind_Direction
259 262 264 266 269 274 278 281 279 275 276 282 285 289 287 285 285 285 285 285 286 285 284 284 283 280 278 277 277 275 274 272 269 269 268 263 259 260 259 261 266 263 263
268 269 269 273 277 279 280 280 279 282 286 286 285 283 282 284 285 284 285 288 287 288 286 284 282 280 278 275 274 273 272 270 269 266 266 264 261 259 260 257 262 266 261
268 269 270 269 268 270 268 270 273 277 280 280 285 285 283 284 283 285 289 291 289 285 285 282 281 280 278 276 274 272 270 268 266 264 262 262 262 261 258 254 255 261 262
273 276 276 275 273 272 274 275 278 280 282 284 284 284 284 285 285 285 285 284 284 283 282 281 280 279 278 276 273 270 268 267 265 263 261 259 258 258 257 254 252 256 258
270 272 273 273 274 276 276 276 277 278 279 280 279 279 280 282 282 283 285 288 289 288 287 286 285 283 282 279 276 273 270 268 265 263 261 257 254 253 253 252 249 250 253
271 273 272 274 274 274 275 275 275 276 278 279 282 282 285 287 289 290 290 290 290 290 290 290 289 288 287 285 281 277 273 267 261 259 257 255 251 249 249 249 246 245 246
269 269 274 274 274 276 279 281 281 281 281 282 283 284 285 287 287 289 292 292 294 297 297 296 295 290 287 283 279 274 270 266 262 256 253 248 243 244 244 246 244 243 242
273 274 276 277 279 281 283 283 283 282 281 281 281 282 285 289 293 296 296 300 301 303 301 298 296 294 292 287 284 283 275 268 262 257 250 245 241 237 235 236 238 239 239
275 275 276 278 281 282 283 283 282 281 280 280 282 287 292 297 298 300 302 305 308 305 303 304 303 301 293 294 293 290 284 276 267 250 244 238 240 237 237 232 229 234 235
277 279 281 282 282 283 282 279 278 278 280 284 289 295 297 299 303 302 309 311 310 307 310 308 303 301 301 304 304 298 293 286 277 255 241 235 232 233 232 234 231 226 226
277 280 284 284 283 281 277 276 276 280 286 292 297 298 301 303 305 308 310 311 310 316 313 316 315 308 306 306 313 303 299 299 270 236 208 210 223 229 231 230 228 230 225
279 280 281 280 281 276 274 274 281 288 296 299 301 302 302 303 307 306 309 307 314 316 327 313 314 312 315 310 307 324 333 273 257 214 210 214 219 220 220 216 214 213 214
282 281 281 279 277 269 271 278 288 295 300 305 303 303 303 307 305 304 305 306 312 327 332 330 309 326 339 344 326 306 321 3 242 204 205 204 211 211 216 213 209 207 201
284 281 280 272 262 266 267 283 293 302 312 307 307 305 307 306 304 309 310 306 313 333 359 5 348 340 344 1 350 347 4 69 18 153 151 179 197 198 192 184 191 194 192
276 280 279 274 272 255 278 292 304 318 314 311 311 316 321 324 331 337 353 346 357 45 18 357 354 335 327 343 355 21 28 42 47 44 299 8 210 170 166 171 173 181 183
283 277 265 249 258 287 295 309 321 330 324 324 334 355 349 24 42 26 69 81 41 18 56 5 11 353 350 6 11 48 18 30 69 110 181 2 157 129 147 148 160 165 172
264 274 260 288 287 302 317 328 340 342 336 347 15 30 73 85 58 73 58 51 49 60 28 287 342 35 61 62 38 49 56 67 94 101 101 117 141 140 127 133 140 150 163
260 264 258 285 305 321 336 346 352 345 351 15 37 80 112 86 67 57 51 67 34 54 13 62 101 90 84 70 63 51 58 53 98 111 111 128 133 120 125 138 128 149 164
249 265 269 288 312 335 348 354 356 354 351 12 42 95 141 112 105 60 55 60 42 70 82 75 74 92 87 64 78 63 68 47 84 107 114 116 135 136 156 176 177 182 185
249 272 284 303 318 334 350 5 351 353 343 351 86 85 119 182 227 326 47 78 47 80 74 76 75 73 59 74 73 70 84 76 83 100 98 107 112 114 115 118 130 135 136
257 277 305 315 319 329 343 7 358 351 328 308 301 185 170 143 142 211 81 102 77 88 67 48 95 85 82 82 71 71 77 73 76 82 103 109 114 122 128 131 130 135 139
285 291 307 313 315 321 331 348 3 343 310 274 270 238 204 172 179 226 166 147 114 97 101 68 54 64 98 95 104 85 88 83 81 83 80 99 105 117 114 119 134 140 145
287 294 299 305 308 309 317 330 344 348 302 251 229 224 209 192 179 198 170 138 104 328 152 134 109 94 74 78 90 74 77 95 104 103 101 100 98 108 119 126 128 131 140
279 285 291 299 299 300 305 315 331 340 336 237 224 220 215 194 184 161 160 169 173 189 145 157 138 140 109 97 91 86 86 94 102 104 98 109 122 129 138 151 159 169 183
279 283 285 292 302 302 299 304 319 331 346 288 226 214 210 187 183 170 182 184 206 202 199 192 168 176 162 156 146 160 156 151 143 148 158 166 176 176 176 187 200 213 226
279 284 293 293 296 301 307 302 302 315 328 337 250 224 206 197 185 187 191 220 233 236 225 199 202 201 188 196 189 177 201 205 196 200 215 219 213 217 235 250 264 274 278
Height
5730 5729 5729 5729 5728 5727 5727 5725 5723 5721 5721 5720 5717 5714 5713 5712 5708 5705 5702 5700 5697 5694 5691 5688 5686 5684 5683 5683 5681 5680 5681 5682 5685 5688 5691 5693 5696 5698 5699 5701 5701 5705 5708
5721 5721 5721 5720 5718 5717 5715 5713 5713 5711 5708 5708 5707 5706 5704 5700 5695 5691 5689 5685 5684 5679 5676 5673 5671 5669 5667 5666 5665 5665 5666 5668 5669 5672 5674 5678 5679 5682 5686 5689 5690 5693 5698
5712 5710 5709 5709 5708 5708 5707 5705 5703 5702 5700 5699 5697 5694 5691 5687 5684 5678 5674 5670 5668 5665 5661 5659 5656 5652 5651 5650 5649 5648 5649 5651 5653 5655 5659 5661 5664 5666 5672 5677 5679 5681 5685
5702 5701 5700 5698 5697 5696 5695 5693 5692 5690 5689 5686 5683 5679 5675 5671 5667 5664 5662 5659 5654 5651 5648 5645 5641 5637 5635 5633 5632 5632 5632 5633 5633 5635 5641 5644 5648 5651 5655 5661 5667 5668 5673
5693 5691 5689 5688 5686 5685 5683 5682 5681 5680 5677 5674 5670 5667 5663 5659 5656 5652 5647 5643 5640 5637 5633 5627 5622 5618 5614 5611 5610 5610 5609 5610 5610 5613 5619 5624 5630 5633 5638 5644 5651 5656 5660
5681 5679 5678 5677 5676 5674 5673 5671 5670 5668 5664 5660 5656 5652 5648 5645 5641 5637 5633 5629 5625 5620 5615 5609 5601 5595 5590 5586 5582 5579 5578 5579 5581 5584 5593 5601 5609 5614 5620 5626 5635 5641 5648
5671 5669 5667 5666 5665 5663 5661 5659 5656 5653 5650 5647 5644 5640 5637 5635 5630 5627 5622 5616 5610 5602 5594 5587 5580 5572 5565 5560 5555 5550 5548 5547 5549 5553 5563 5574 5583 5592 5599 5608 5617 5626 5634
5659 5658 5656 5655 5653 5651 5649 5646 5644 5641 5638 5636 5634 5630 5627 5623 5618 5613 5606 5600 5593 5584 5576 5567 5559 5551 5543 5536 5532 5527 5522 5519 5518 5522 5533 5546 5555 5564 5574 5587 5598 5609 5620
5649 5647 5646 5644 5643 5641 5638 5635 5632 5630 5628 5626 5624 5620 5616 5611 5605 5599 5591 5585 5578 5569 5559 5550 5541 5534 5527 5522 5517 5509 5502 5496 5489 5490 5504 5520 5532 5544 5555 5566 5580 5592 5604
5639 5638 5636 5635 5632 5630 5627 5624 5622 5621 5619 5617 5614 5609 5604 5599 5593 5586 5578 5573 5565 5557 5547 5539 5531 5525 5520 5513 5505 5498 5492 5486 5481 5478 5487 5501 5513 5526 5537 5550 5562 5574 5588
5629 5628 5626 5624 5622 5619 5617 5615 5615 5613 5612 5608 5605 5599 5592 5587 5581 5574 5568 5562 5556 5549 5542 5534 5527 5521 5515 5509 5501 5493 5487 5484 5482 5483 5486 5495 5506 5516 5527 5537 5549 5562 5575
5619 5618 5616 5614 5612 5610 5609 5608 5608 5606 5603 5599 5594 5588 5582 5575 5570 5564 5559 5554 5550 5544 5538 5531 5525 5518 5511 5504 5499 5493 5487 5484 5484 5485 5490 5496 5503 5511 5518 5527 5539 5551 5564
5609 5607 5606 5604 5603 5603 5603 5603 5601 5599 5596 5591 5584 5578 5570 5565 5560 5555 5552 5549 5547 5541 5536 5529 5524 5517 5510 5503 5496 5492 5489 5487 5487 5488 5489 5493 5499 5502 5508 5518 5530 5542 5556
5600 5597 5596 5596 5596 5597 5597 5597 5596 5593 5589 5583 5575 5567 5561 5556 5552 5549 5548 5547 5545 5541 5537 5532 5525 5518 5512 5506 5498 5493 5489 5489 5490 5490 5491 5493 5496 5499 5504 5511 5524 5535 5550
5592 5591 5590 5591 5591 5592 5592 5592 5591 5588 5582 5573 5565 5558 5553 5550 5549 5547 5547 5546 5546 5542 5538 5532 5525 5520 5512 5510 5504 5500 5496 5494 5493 5492 5492 5494 5496 5502 5506 5513 5523 5533 5547
5588 5587 5587 5587 5586 5588 5588 5586 5585 5581 5573 5564 5558 5554 5552 5551 5551 5550 5549 5548 5546 5543 5540 5533 5529 5525 5521 5516 5511 5508 5501 5499 5497 5496 5497 5497 5497 5503 5510 5517 5528 5541 5555
5584 5584 5583 5584 5585 5585 5584 5582 5577 5572 5566 5560 5556 5553 5553 5555 5556 5554 5552 5550 5548 5545 5543 5537 5535 5533 5528 5525 5524 5517 5513 5508 5507 5505 5505 5505 5506 5513 5519 5526 5537 5548 5558
5582 5582 5581 5582 5582 5581 5580 5577 5573 5568 5563 5560 5557 5556 5557 5559 5559 5559 5556 5555 5551 5548 5545 5541 5539 5535 5534 5534 5533 5529 5524 5521 5517 5518 5517 5520 5522 5528 5532 5538 5547 5556 5565
5581 5580 5579 5579 5579 5578 5577 5574 5570 5565 5563 5561 5559 5559 5559 5561 5562 5562 5561 5561 5557 5553 5554 5551 5548 5542 5542 5539 5540 5544 5538 5535 5533 5530 5532 5531 5531 5535 5542 5550 5559 5566 5572
5579 5578 5578 5577 5576 5575 5574 5572 5568 5564 5563 5562 5561 5560 5561 5563 5565 5564 5566 5565 5564 5563 5562 5558 5557 5553 5553 5550 5549 5550 5549 5549 5547 5547 5545 5545 5546 5549 5553 5560 5566 5571 5576
5576 5576 5575 5575 5574 5573 5571 5570 5567 5564 5562 5561 5562 5562 5562 5563 5566 5565 5566 5566 5566 5566 5564 5565 5560 5559 5560 5559 5559 5559 5559 5557 5557 5556 5555 5556 5559 5561 5563 5567 5573 5579 5586
5574 5573 5573 5572 5571 5570 5569 5568 5566 5563 5562 5561 5561 5561 5561 5563 5566 5568 5569 5567 5569 5569 5567 5567 5566 5567 5565 5564 5564 5565 5565 5566 5566 5566 5568 5568 5568 5570 5573 5578 5581 5585 5590
5571 5571 5570 5570 5568 5567 5566 5565 5563 5562 5560 5559 5560 5560 5561 5562 5565 5567 5569 5570 5569 5569 5568 5570 5571 5571 5570 5570 5571 5571 5571 5573 5573 5574 5574 5576 5578 5580 5583 5587 5589 5592 5595
5567 5567 5567 5566 5565 5564 5563 5562 5561 5559 5557 5557 5557 5559 5559 5561 5563 5565 5568 5569 5572 5572 5571 5574 5577 5576 5574 5573 5574 5575 5575 5576 5577 5577 5579 5581 5583 5586 5588 5590 5593 5595 5597
5564 5564 5563 5563 5562 5561 5560 5559 5557 5556 5555 5553 5554 5556 5557 5559 5561 5561 5565 5566 5569 5571 5573 5576 5575 5573 5574 5575 5575 5577 5577 5578 5579 5581 5583 5584 5585 5586 5589 5591 5593 5594 5595
5561 5561 5560 5559 5559 5558 5557 5555 5555 5554 5553 5552 5552 5553 5554 5557 5559 5561 5561 5563 5565 5567 5571 5574 5575 5574 5574 5576 5576 5576 5579 5580 5581 5582 5583 5585 5586 5588 5590 5591 5592 5593 5593